Pagrindinis puslapis
METAR-TAF:

METAR-TAF

Oro uostai :

Nadžafas, Irakas

platuma: 31-59-23N, ilguma: 44-24-15E, Aukštis: 31 m

Dabartinis oras

Ataskaita buvo paskelbta 23 minutes, ne 06:00 UTC
Vėjas 6 kt iš Pietų
Temperatūra 35°C
Drėgmė 17%
Slėgis 1005 hPa
Matomumas: 7000 m

METAR: ORNI 240600Z 17006KT 7000 NSC 35/06 Q1005

Laikas: 09:23 (06:23 UTC)


TAF: trūkstamas

Orai ataskaitas ir orų prognozės (METAR, TAF).

turimą stotys yra geltonos ir raudonos taškus žemėlapyje.

Perkelti pele per norėdami pamatyti stoties vardą.

Tada spustelėkite, norėdami matyti oro stebėjimo ir prognozės.

Norėdami pakeisti žemėlapį: spustelėkite ant žalios mygtukų su juodo kryžiaus žemyn,; žalią mygtuką su brūkšneliu, jei norite nutolinti; arba žalių rodyklių gretimoms žemėlapius.


METAR-TAF: